Location: Ajisawe
(8.4333°N, 4.3833°E)
Time: 13:22:59
(UTC+00:00)

SR - Pass Details

Date: 28 April 2021
Orbit: 573 x 882 km, 66.7° (Epoch: 15 May)

Event Time Altitude Azimuth Distance (km) Brightness Sun altitude
Exits shadow 03:14:54 29° 127° (SE) 1,378 ? -32.1°
Maximum altitude 03:15:50 31° 107° (ESE) 1,339 ? -31.9°
Drops below altitude 10° 03:20:37 10° 47° (NE) 2,396 ? -30.8°
Sets 03:23:23 0° 37° (NE) 3,371 ? -30.2°
